Hourly Data Report for October 31, 2019

All times are specified in Local Standard Time (LST). Add 1 hour to adjust for Daylight Saving Time where and when it is observed.

WOODSTOCK NEWBRIDGE
NEW BRUNSWICK
Current Station Operator: ECCC - MSC

46°09'08.000" N
67°32'34.000" W
154.00 m
8105603
71606
EWD

Download Data

Hourly Data (October 2019)
Hourly Data Report for October 31, 2019
TIME Temp Definition
°C
Dew Point Definition
°C
Rel Hum Definition
%
Wind Dir Definition
10's deg

Wind Spd Definition
km/h
Visibility Definition
km
Stn Press Definition
kPa
Hmdx Definition


Wind Chill Definition


Weather Definition


00:00 10.5 9.7 95 12 4   100.49     LegendNANA
01:00 10.1 9.3 95 9 4   100.42     LegendNANA
02:00 10.5 9.6 94 12 7   100.37     LegendNANA
03:00 10.3 9.7 96 11 6   100.28     LegendNANA
04:00 10.4 10.0 98 12 7   100.17     LegendNANA
05:00 10.7 10.4 98 12 9   100.10     LegendNANA
06:00 11.1 10.7 98 11 11   99.95     LegendNANA
07:00 11.5 11.1 98 12 9   99.86     LegendNANA
08:00 11.7 11.3 97 12 11   99.80     LegendNANA
09:00 12.0 11.6 97 13 9   99.73     LegendNANA
10:00 12.8 12.5 98 14 9   99.63     LegendNANA
11:00 13.8 13.3 97 15 10   99.57     LegendNANA
12:00 15.0 14.5 97 15 10   99.44     LegendNANA
13:00 15.3 14.7 96 15 12   99.28     LegendNANA
14:00 15.4 14.7 96 15 14   99.11     LegendNANA
15:00 15.6 14.9 96 16 11   99.03     LegendNANA
16:00 15.2 14.7 96 16 10   98.99     LegendNANA
17:00 15.4 15.0 97 16 8   98.92     LegendNANA
18:00 15.6 15.3 98 16 9   98.87     LegendNANA
19:00 16.0 15.7 98 15 10   98.73     LegendNANA
20:00 16.9 16.5 98 16 14   98.67     LegendNANA
21:00 17.2 16.8 97 16 15   98.53     LegendNANA
22:00 17.4 16.7 96 16 20   98.41     LegendNANA
23:00 17.6 16.7 94 17 23   98.31     LegendNANA

Notes on Data Quality.

Legend

  • E = Estimated
  • M = Missing
  • NA = Not Available
Date modified: